AirNav   SIMCOM
 
 1701 users online  

87KS Holyrood Municipal Airport
Holyrood, Kansas, USA

GOING TO HOLYROOD?


FAA INFORMATION EFFECTIVE 14 SEPTEMBER 2017

Location

FAA Identifier: 87KS
Lat/Long: 38-35-07.6000N / 098-24-16.8000W
38-35.126667N / 098-24.280000W
38.5854444 / -98.4046667
(estimated)
Elevation: 1809 ft. / 551 m (estimated)
Variation: 07E (1985)
From city: 1 mile SE of HOLYROOD, KS
Time zone: UTC -5 (UTC -6 during Standard Time)
Zip code: 67450

Airport Operations

Airport use: Private use. Permission required prior to landing
Activation date: 06/1947
Control tower: no
ARTCC: KANSAS CITY CENTER
FSS: WICHITA FLIGHT SERVICE STATION
Attendance: UNATNDD
Wind indicator: yes
Segmented circle: no

Airport Communications

WX AWOS-3 at 9K7 (13 nm NE): 119.675 (785-472-5609)

Nearby radio navigation aids

NDB name  Hdg/Dist  Freq  Var  ID
LYONS324/16.638606ELYO .-.. -.-- ---

Airport Services

Airframe service: NONE
Powerplant service: NONE

Runway Information

Runway 17/35

Dimensions: 1650 x 100 ft. / 503 x 30 m
Surface: turf, in good condition
RUNWAY 17  RUNWAY 35
Latitude: 38-35.263167N38-34.991167N
Longitude: 098-24.277500W098-24.280333W
Elevation: 1809.0 ft.1797.0 ft.
Traffic pattern: leftleft
Runway heading: 173 magnetic, 180 true353 magnetic, 000 true
Obstructions: 50 ft. poles, lighted, 350 ft. from runway15 ft. trees, 185 ft. from runway, 67 ft. left of centerline, 12:1 slope to clear

Airport Ownership and Management from official FAA records

Ownership: Publicly-owned
Owner: CITY OF HOLYROOD
BOX 67
HOLYROOD, KS 67450
Phone 913-252-3652
Manager: NEYSA BROWN
CITY OF HOLYROOD, BOX 67
HOLYROOD, KS 67450
Phone 913-252-3652

Airport Operational Statistics

Aircraft operations: avg 42/month *
60% local general aviation
40% transient general aviation
* for 12-month period ending 13 November 1984

Instrument Procedures

There are no published instrument procedures at 87KS.

Some nearby airports with instrument procedures:

KLYO - Lyons-Rice County Municipal Airport (17 nm SE)
KRSL - Russell Municipal Airport (26 nm NW)
KGBD - Great Bend Municipal Airport (26 nm SW)
KMPR - Mc Pherson Airport (36 nm E)
KSLN - Salina Regional Airport (37 nm E)
 
Loc | Ops | Rwys | IFR | FBO | Links
Com | Nav | Svcs | Stats | Notes

Kansas City Aviation Department
 
Area around 87KS (Holyrood Municipal Airport)
 
Road maps at: MapQuest Bing Google
 
Aerial photo
No photo
 
Sectional chart

 
Airport distance calculator
Flying to Holyrood Municipal Airport? Find the distance to fly.

From to 87KS

Sunrise and sunset
Times for 25-Sep-2017
 Local
(UTC-5)
 Zulu
(UTC)
Morning civil twilight06:5911:59
Sunrise07:2512:25
Sunset19:2600:26
Evening civil twilight19:5200:52

Current date and time
Zulu (UTC)  25-Sep-2017 19:38:06
Local (UTC-5)  25-Sep-2017 14:38:06
 
METAR
KRSL 
26nm NW 
251853Z AUTO 34012KT 10SM OVC003 14/14 A2992 RMK AO2 RAE43 SLP124 P0003 T01440139
KGBD 
26nm SW 
251917Z AUTO 33003KT 10SM -RA BKN007 BKN070 OVC080 17/17 A2993 RMK AO2 LTG DSNT SE CIG 004V013 P0003
KSLN 
37nm E 
251853Z 04006KT 5SM +TSRA BR FEW038 SCT046 OVC110 19/18 A2992 RMK AO2 LTG DSNT ALQDS SLP123 P0017 T01940178
KHUT 
40nm SE 
251915Z 00000KT 1 3/4SM RA BR SCT007 BKN020 OVC070 19/18 A2993 RMK AO2 LTG DSNT ALQDS TSB1858E13 P0008 T01890178 $
KHYS 
43nm W 
251856Z AUTO 35015KT 10SM OVC006 14/13 A2996 RMK AO2 SLP138 T01390128
TAF
KRSL 
26nm NW 
251756Z 2518/2618 01009KT P6SM +SHRA VCTS BKN005 OVC010CB TEMPO 2518/2520 3SM +TSRA BR OVC005CB FM260300 35010KT 5SM -SHRA BR OVC008 FM260600 35010KT 4SM BR VCSH OVC003 FM261300 35010KT P6SM OVC008
KGBD 
26nm SW 
251756Z 2518/2618 03006KT 4SM +SHRA VCTS BKN008 OVC015CB TEMPO 2518/2520 3SM +TSRA BR BKN003 OVC010CB FM252100 36008KT 6SM SHRA VCTS OVC008CB FM260300 36008KT 4SM -SHRA BR BKN004 OVC015 FM261100 35008KT P6SM OVC008 AMD LTD TO CLD VIS AND WIND
NOTAMs
Click for the latest NOTAMs
NOTAMs are issued by the DoD/FAA and will open in a separate window not controlled by AirNav.

 

 
 

Would you like to see your business listed on this page?

 If your business provides an interesting product or service to pilots, flight crews, aircraft, or users of the Holyrood Municipal Airport, you should consider listing it here.  To start the listing process, click on the button below
 
Add a business
 

Other Pages about Holyrood Municipal Airport

Update a link
 
Copyright © AirNav, LLC. All rights reserved. Privacy Policy  Contact